"Period start","avg(HW err(1)/warn(2) (#))","avg(Visibility (m))","avg(Weather code (#))","avg(Precip intensity (mm/h))","min(HW err(1)/warn(2) (#))","max(HW err(1)/warn(2) (#))","std(HW err(1)/warn(2) (#))","med(HW err(1)/warn(2) (#))","min(Visibility (m))","max(Visibility (m))","std(Visibility (m))","med(Visibility (m))","min(Weather code (#))","max(Weather code (#))","std(Weather code (#))","med(Weather code (#))","min(Precip intensity (mm/h))","max(Precip intensity (mm/h))","std(Precip intensity (mm/h))","med(Precip intensity (mm/h))"
2014-03-30 00:00:00,2,40991,0,0.00,2,2,0,2,27956,50000,5693,42607,0,0,0,0,0.00,0.00,0.00,0.00
2014-03-30 00:10:00,2,34047,0,0.00,2,2,0,2,21507,45790,7339,35018,0,0,0,0,0.00,0.00,0.00,0.00
2014-03-30 00:20:00,2,38603,0,0.00,2,2,0,2,28026,50000,6834,37488,0,0,0,0,0.00,0.00,0.00,0.00
2014-03-30 00:30:00,2,37807,0,0.00,2,2,0,2,22407,46595,8919,43299,0,0,0,0,0.00,0.00,0.00,0.00
2014-03-30 00:40:00,2,31888,0,0.00,2,2,0,2,22045,46163,7018,34473,0,0,0,0,0.00,0.00,0.00,0.00
2014-03-30 00:50:00,2,22135,0,0.00,2,2,0,2,18609,26751,2157,22164,0,0,0,0,0.00,0.00,0.00,0.00
2014-03-30 01:00:00,2,25813,0,0.00,2,2,0,2,10508,35741,8558,28685,0,0,0,0,0.00,0.00,0.00,0.00
2014-03-30 01:10:00,2,14142,20,0.00,2,2,0,2,7398,20077,4715,14482,0,77,33,0,0.00,0.00,0.00,0.00
2014-03-30 01:20:00,2,14444,22,0.01,2,2,0,2,9070,19527,2892,14066,0,77,33,0,0.00,0.05,0.02,0.00
2014-03-30 01:30:00,2,14042,14,0.03,2,2,0,2,9475,18275,2928,15108,0,71,28,0,0.00,0.20,0.06,0.00
2014-03-30 01:40:00,2,9040,71,0.03,2,2,0,2,5974,13141,2245,8314,71,71,0,71,0.00,0.20,0.06,0.00
2014-03-30 01:50:00,2,10031,65,0.03,2,2,0,2,6816,21445,4255,8078,41,71,12,71,0.00,0.10,0.03,0.03
2014-03-30 02:00:00,2,12930,71,0.12,2,2,0,2,6115,23920,6322,11050,71,71,0,71,0.00,0.45,0.15,0.08
2014-03-30 02:10:00,2,5493,71,0.18,2,2,0,2,3326,7990,1561,5088,71,71,0,71,0.00,0.50,0.14,0.12
2014-03-30 02:20:00,2,8028,71,0.18,2,2,0,2,4091,19685,4585,6900,71,71,0,71,0.00,0.60,0.18,0.12
2014-03-30 02:30:00,2,14655,50,0.03,2,2,0,2,7732,34710,8683,10980,0,71,33,71,0.00,0.10,0.03,0.00
2014-03-30 02:40:00,2,7833,71,0.09,2,2,0,2,3136,11514,2173,7706,71,71,0,71,0.00,0.45,0.13,0.05
2014-03-30 02:50:00,2,12592,71,0.14,2,2,0,2,4108,28625,8612,8166,71,71,0,71,0.00,0.40,0.13,0.10
2014-03-30 03:00:00,2,4913,71,0.24,2,2,0,2,3326,6936,1068,4728,71,71,0,71,0.05,0.90,0.25,0.12
2014-03-30 03:10:00,2,5240,71,0.35,2,2,0,2,3579,6877,1003,5196,71,71,0,71,0.10,1.05,0.28,0.25
2014-03-30 03:20:00,2,4795,71,0.34,1,2,0,2,3095,6233,971,4685,71,71,0,71,0.10,0.65,0.16,0.35
2014-03-30 03:30:00,1,0,71,0.30,1,2,0,1,0,0,0,0,71,71,0,71,0.30,0.30,0.00,0.30
2014-03-30 03:40:00,1,,,,1,1,0,1,,,,,,,,,,,,
2014-03-30 03:50:00,1,,,,1,1,0,1,,,,,,,,,,,,
2014-03-30 04:00:00,1,,,,1,1,0,1,,,,,,,,,,,,
2014-03-30 04:10:00,1,,,,1,1,0,1,,,,,,,,,,,,
2014-03-30 04:20:00,1,,,,1,1,0,1,,,,,,,,,,,,
2014-03-30 04:30:00,1,,,,1,1,0,1,,,,,,,,,,,,
2014-03-30 04:40:00,1,,,,1,1,0,1,,,,,,,,,,,,
2014-03-30 04:50:00,1,,,,1,1,0,1,,,,,,,,,,,,
2014-03-30 05:00:00,1,,,,1,1,0,1,,,,,,,,,,,,
2014-03-30 05:10:00,1,,,,1,1,0,1,,,,,,,,,,,,
2014-03-30 05:20:00,1,,,,1,1,0,1,,,,,,,,,,,,
2014-03-30 05:30:00,1,,,,1,1,0,1,,,,,,,,,,,,
2014-03-30 05:40:00,1,,,,1,1,0,1,,,,,,,,,,,,
2014-03-30 05:50:00,1,,,,1,1,0,1,,,,,,,,,,,,
2014-03-30 06:00:00,1,,,,1,1,0,1,,,,,,,,,,,,
2014-03-30 06:10:00,1,,,,1,1,0,1,,,,,,,,,,,,
2014-03-30 06:20:00,1,,,,1,1,0,1,,,,,,,,,,,,
2014-03-30 06:30:00,1,,,,1,1,0,1,,,,,,,,,,,,
2014-03-30 06:40:00,1,,,,1,1,0,1,,,,,,,,,,,,
2014-03-30 06:50:00,1,,,,1,1,0,1,,,,,,,,,,,,
2014-03-30 07:00:00,1,,,,1,1,0,1,,,,,,,,,,,,
2014-03-30 07:10:00,1,,,,1,1,0,1,,,,,,,,,,,,
2014-03-30 07:20:00,1,,,,1,1,0,1,,,,,,,,,,,,
2014-03-30 07:30:00,1,,,,1,1,0,1,,,,,,,,,,,,
2014-03-30 07:40:00,1,,,,1,1,0,1,,,,,,,,,,,,
2014-03-30 07:50:00,1,,,,1,1,0,1,,,,,,,,,,,,
2014-03-30 08:00:00,1,,,,1,1,0,1,,,,,,,,,,,,
2014-03-30 08:10:00,1,,,,1,1,0,1,,,,,,,,,,,,
2014-03-30 08:20:00,1,,,,1,1,0,1,,,,,,,,,,,,
2014-03-30 08:30:00,1,,,,1,1,0,1,,,,,,,,,,,,
2014-03-30 08:40:00,1,,,,1,1,0,1,,,,,,,,,,,,
2014-03-30 08:50:00,1,,,,1,1,0,1,,,,,,,,,,,,
2014-03-30 09:00:00,1,,,,1,1,0,1,,,,,,,,,,,,
2014-03-30 09:10:00,1,0,71,0.10,1,2,0,1,0,0,0,0,71,71,0,71,0.10,0.10,0.00,0.10
2014-03-30 09:20:00,2,2346,71,0.41,1,2,0,2,1682,3011,464,2375,71,71,0,71,0.15,0.60,0.15,0.38
2014-03-30 09:30:00,2,3334,71,0.40,2,2,0,2,1855,6654,1478,2965,71,71,0,71,0.05,0.95,0.32,0.28
2014-03-30 09:40:00,2,6340,73,0.11,2,2,0,2,3258,12100,2811,5312,71,77,3,71,0.00,0.40,0.12,0.05
2014-03-30 09:50:00,2,3758,71,0.40,2,2,0,2,1974,5293,1004,4248,71,71,0,71,0.10,1.15,0.30,0.30
2014-03-30 10:00:00,2,7161,75,0.04,2,2,0,2,4583,9814,1330,7133,71,77,3,77,0.00,0.10,0.04,0.05
2014-03-30 10:10:00,2,6102,77,0.08,2,2,0,2,4279,9056,1193,5886,77,77,0,77,0.05,0.15,0.04,0.05
2014-03-30 10:20:00,2,9539,77,0.03,2,2,0,2,7551,12753,1436,9256,77,77,0,77,0.00,0.05,0.03,0.03
2014-03-30 10:30:00,2,16373,31,0.00,2,2,0,2,12863,20496,2262,16090,0,77,38,0,0.00,0.00,0.00,0.00
2014-03-30 10:40:00,2,13651,68,0.01,2,2,0,2,10345,18646,2281,13771,0,77,23,77,0.00,0.10,0.03,0.00
2014-03-30 10:50:00,2,13404,77,0.00,2,2,0,2,10713,15175,1223,13371,77,77,0,77,0.00,0.00,0.00,0.00
2014-03-30 11:00:00,2,13870,77,0.01,2,2,0,2,9947,18271,2332,14148,77,77,0,77,0.00,0.05,0.02,0.00
2014-03-30 11:10:00,2,15781,74,0.02,2,2,0,2,11206,22740,3799,14278,71,77,3,74,0.00,0.15,0.05,0.00
2014-03-30 11:20:00,2,25747,61,0.01,2,2,0,2,13523,35119,6995,27518,0,77,31,77,0.00,0.05,0.02,0.00
2014-03-30 11:30:00,2,26397,0,0.00,2,2,0,2,10968,33201,6188,28283,0,0,0,0,0.00,0.00,0.00,0.00
2014-03-30 11:40:00,2,22585,21,0.01,2,2,0,2,18664,26407,2658,22865,0,71,33,0,0.00,0.05,0.02,0.00
2014-03-30 11:50:00,2,17229,0,0.00,1,2,0,2,16491,18420,789,16737,0,0,0,0,0.00,0.00,0.00,0.00
2014-03-30 12:00:00,1,,,,1,1,0,1,,,,,,,,,,,,
2014-03-30 12:10:00,1,,,,1,1,0,1,,,,,,,,,,,,
2014-03-30 12:20:00,1,,,,1,1,0,1,,,,,,,,,,,,
2014-03-30 12:30:00,1,,,,1,1,0,1,,,,,,,,,,,,
2014-03-30 12:40:00,1,,,,1,1,0,1,,,,,,,,,,,,
2014-03-30 12:50:00,1,,,,1,1,0,1,,,,,,,,,,,,
2014-03-30 13:00:00,1,14069,78,0.00,1,2,0,1,0,28138,14069,14069,78,78,0,78,0.00,0.00,0.00,0.00
2014-03-30 13:10:00,2,14008,0,0.00,2,2,0,2,8121,19613,3711,13606,0,0,0,0,0.00,0.00,0.00,0.00
2014-03-30 13:20:00,2,8224,37,0.01,2,2,0,2,5970,14203,2507,7074,0,77,37,36,0.00,0.05,0.02,0.00
2014-03-30 13:30:00,2,9013,77,0.01,2,2,0,2,6584,12305,1521,8670,71,78,2,77,0.00,0.10,0.03,0.00
2014-03-30 13:40:00,2,12699,76,0.01,2,2,0,2,7031,17029,2894,12974,71,77,2,77,0.00,0.05,0.02,0.00
2014-03-30 13:50:00,2,10166,38,0.00,2,2,0,2,6908,13460,2517,10642,0,77,38,38,0.00,0.00,0.00,0.00
2014-03-30 14:00:00,2,8995,68,0.01,2,2,0,2,5920,12493,1707,9238,0,77,23,77,0.00,0.05,0.02,0.00
2014-03-30 14:10:00,2,18889,54,0.01,2,2,0,2,8932,31826,7487,16155,0,77,35,77,0.00,0.05,0.02,0.00
2014-03-30 14:20:00,2,18219,22,0.01,2,2,0,2,12198,21628,2765,18373,0,77,33,0,0.00,0.05,0.02,0.00
2014-03-30 14:30:00,2,18093,0,0.00,2,2,0,2,15419,20346,1540,17866,0,0,0,0,0.00,0.00,0.00,0.00
2014-03-30 14:40:00,2,19559,0,0.00,2,2,0,2,15889,25802,2487,19234,0,0,0,0,0.00,0.00,0.00,0.00
2014-03-30 14:50:00,2,16879,74,0.01,2,2,0,2,13237,20086,1961,16974,71,78,4,74,0.00,0.10,0.03,0.00
2014-03-30 15:00:00,2,19012,76,0.01,2,2,0,2,10271,24891,4242,19396,71,78,3,78,0.00,0.10,0.03,0.00
2014-03-30 15:10:00,2,16837,77,0.00,2,2,0,2,12487,21353,3175,16778,77,77,0,77,0.00,0.00,0.00,0.00
2014-03-30 15:20:00,2,18152,77,0.02,2,2,0,2,9498,24254,4190,19070,77,77,0,77,0.00,0.10,0.03,0.00
2014-03-30 15:30:00,2,17670,74,0.10,2,2,0,2,10614,25754,5188,16302,71,77,3,74,0.00,0.30,0.11,0.05
2014-03-30 15:40:00,2,23968,72,0.07,2,2,0,2,10555,35634,7790,24724,71,77,2,71,0.00,0.50,0.15,0.00
2014-03-30 15:50:00,2,12652,64,0.07,2,2,0,2,4911,18965,5112,12608,0,71,21,71,0.00,0.35,0.11,0.00
2014-03-30 16:00:00,2,20530,75,0.02,2,2,0,2,13009,29288,4606,20000,71,77,3,77,0.00,0.15,0.05,0.00
2014-03-30 16:10:00,2,17446,72,0.04,2,2,0,2,11817,22476,3748,18029,71,77,2,71,0.00,0.30,0.09,0.00
2014-03-30 16:20:00,2,23569,72,0.03,2,2,0,2,15308,35132,6540,20584,71,77,2,71,0.00,0.15,0.04,0.03
2014-03-30 16:30:00,1,18190,78,0.00,1,2,0,1,0,36381,18190,18190,77,78,0,78,0.00,0.00,0.00,0.00
2014-03-30 16:40:00,1,,,,1,1,0,1,,,,,,,,,,,,
2014-03-30 16:50:00,2,17128,71,0.00,1,2,0,2,0,31824,12635,21812,71,71,0,71,0.00,0.00,0.00,0.00
2014-03-30 17:00:00,2,21217,21,0.01,2,2,0,2,16050,25824,2591,21435,0,71,33,0,0.00,0.05,0.02,0.00
2014-03-30 17:10:00,2,11904,24,0.00,1,2,0,2,0,22324,9966,15863,0,71,33,0,0.00,0.00,0.00,0.00
2014-03-30 17:20:00,2,23990,20,0.00,1,2,0,2,13429,35695,6785,24974,0,78,34,0,0.00,0.00,0.00,0.00
2014-03-30 17:30:00,2,22540,7,0.01,2,2,0,2,11645,28416,4537,23164,0,71,21,0,0.00,0.05,0.02,0.00
2014-03-30 17:40:00,2,29265,15,0.00,2,2,0,2,22086,38348,4267,29212,0,77,30,0,0.00,0.00,0.00,0.00
2014-03-30 17:50:00,2,20003,38,0.01,2,2,0,2,14946,27362,4150,19324,0,78,38,36,0.00,0.05,0.02,0.00
2014-03-30 18:00:00,2,27191,23,0.00,2,2,0,2,18872,38522,6686,26033,0,78,36,0,0.00,0.00,0.00,0.00
2014-03-30 18:10:00,2,29058,0,0.00,2,2,0,2,21176,38181,5480,29928,0,0,0,0,0.00,0.00,0.00,0.00
2014-03-30 18:20:00,1,35326,0,0.00,1,2,0,1,31988,38663,3338,35326,0,0,0,0,0.00,0.00,0.00,0.00
2014-03-30 18:30:00,1,,,,1,1,0,1,,,,,,,,,,,,
2014-03-30 18:40:00,2,30941,0,0.00,1,2,0,2,23956,46702,7117,29784,0,0,0,0,0.00,0.00,0.00,0.00
2014-03-30 18:50:00,2,31525,0,0.00,2,2,0,2,23705,38136,4406,31436,0,0,0,0,0.00,0.00,0.00,0.00
2014-03-30 19:00:00,2,30111,0,0.00,2,2,0,2,18316,41339,7092,27890,0,0,0,0,0.00,0.00,0.00,0.00
2014-03-30 19:10:00,2,20962,0,0.00,2,2,0,2,18392,22832,1216,20724,0,0,0,0,0.00,0.00,0.00,0.00
2014-03-30 19:20:00,2,13980,57,0.04,2,2,0,2,11131,16405,1771,13470,0,71,28,71,0.00,0.20,0.06,0.00
2014-03-30 19:30:00,1,13766,71,0.05,1,2,0,1,13710,13823,56,13766,71,71,0,71,0.05,0.05,0.00,0.05
2014-03-30 19:40:00,1,0,71,0.05,1,2,0,1,0,0,0,0,71,71,0,71,0.05,0.05,0.00,0.05
2014-03-30 19:50:00,1,,,,1,1,0,1,,,,,,,,,,,,
2014-03-30 20:00:00,1,,,,1,1,0,1,,,,,,,,,,,,
2014-03-30 20:10:00,1,,,,1,1,0,1,,,,,,,,,,,,
2014-03-30 20:20:00,1,,,,1,1,0,1,,,,,,,,,,,,
2014-03-30 20:30:00,1,,,,1,1,0,1,,,,,,,,,,,,
2014-03-30 20:40:00,1,0,71,0.00,1,2,0,1,0,0,0,0,71,71,0,71,0.00,0.00,0.00,0.00
2014-03-30 20:50:00,2,19471,47,0.01,1,2,0,2,11097,35987,8713,14936,0,71,33,71,0.00,0.05,0.02,0.00
2014-03-30 21:00:00,2,18539,36,0.08,2,2,0,2,8127,35414,7836,16754,0,71,36,36,0.00,0.45,0.14,0.00
2014-03-30 21:10:00,2,6700,71,0.29,1,2,0,2,0,9115,3428,8584,71,71,0,71,0.05,0.60,0.20,0.20
2014-03-30 21:20:00,2,8533,71,0.07,2,2,0,2,6283,10435,1346,8540,71,71,0,71,0.00,0.25,0.08,0.05
2014-03-30 21:30:00,1,9585,71,0.35,1,2,0,1,9585,9585,0,9585,71,71,0,71,0.35,0.35,0.00,0.35
2014-03-30 21:40:00,2,9557,76,0.03,1,2,0,2,3660,13461,2669,9650,71,77,3,77,0.00,0.10,0.03,0.03
2014-03-30 21:50:00,2,7461,50,0.09,2,2,0,2,5004,11300,1654,7366,0,71,33,71,0.00,0.35,0.11,0.05
2014-03-30 22:00:00,2,5947,71,0.25,1,2,0,2,0,8646,3112,6803,71,71,0,71,0.10,0.50,0.15,0.25
2014-03-30 22:10:00,1,,,,1,1,0,1,,,,,,,,,,,,
2014-03-30 22:20:00,1,,,,1,1,0,1,,,,,,,,,,,,
2014-03-30 22:30:00,1,,,,1,1,0,1,,,,,,,,,,,,
2014-03-30 22:40:00,1,,,,1,1,0,1,,,,,,,,,,,,
2014-03-30 22:50:00,1,,,,1,1,0,1,,,,,,,,,,,,
2014-03-30 23:00:00,1,,,,1,1,0,1,,,,,,,,,,,,
2014-03-30 23:10:00,1,,,,1,1,0,1,,,,,,,,,,,,
2014-03-30 23:20:00,1,,,,1,1,0,1,,,,,,,,,,,,
2014-03-30 23:30:00,1,,,,1,1,0,1,,,,,,,,,,,,
2014-03-30 23:40:00,1,,,,1,1,0,1,,,,,,,,,,,,
2014-03-30 23:50:00,1,,,,1,1,0,1,,,,,,,,,,,,
